Time,TemperatureF,DewpointF,PressureIn,WindDirection,WindDirectionDegrees,WindSpeedMPH,WindSpeedGustMPH,Humidity,HourlyPrecipIn,Conditions,Clouds,dailyrainin,SolarRadiationWatts/m^2,SoftwareType,DateUTC
2013-02-19 00:01:00,34.1,24.7,30.14,NW,322,0.0,0.0,68,0.00,,---,0.00,0.00,VWS V14.01,2013-02-19 06:01:00,
2013-02-19 00:06:00,33.7,24.6,30.14,NW,322,0.0,0.0,69,0.00,,---,0.00,0.00,VWS V14.01,2013-02-19 06:06:00,
2013-02-19 00:11:00,33.0,24.6,30.15,NW,322,0.0,0.0,71,0.00,,---,0.00,0.00,VWS V14.01,2013-02-19 06:11:00,
2013-02-19 00:16:00,32.6,24.2,30.15,NW,322,0.0,0.0,71,0.00,,---,0.00,0.00,VWS V14.01,2013-02-19 06:16:00,
2013-02-19 00:21:00,32.2,24.5,30.15,NW,322,0.0,0.0,73,0.00,,---,0.00,0.00,VWS V14.01,2013-02-19 06:21:00,
2013-02-19 00:26:00,32.1,24.8,30.15,NW,322,0.0,0.0,74,0.00,,---,0.00,0.00,VWS V14.01,2013-02-19 06:26:00,
2013-02-19 00:31:00,32.0,24.7,30.15,NW,322,0.0,0.0,74,0.00,,---,0.00,0.00,VWS V14.01,2013-02-19 06:31:00,
2013-02-19 00:36:00,31.9,24.6,30.15,NW,322,0.0,0.0,74,0.00,,---,0.00,0.00,VWS V14.01,2013-02-19 06:36:00,
2013-02-19 00:41:00,31.7,24.7,30.16,NW,322,0.0,0.0,75,0.00,,---,0.00,0.00,VWS V14.01,2013-02-19 06:41:00,
2013-02-19 00:46:00,31.3,24.3,30.15,NW,322,0.0,0.0,75,0.00,,---,0.00,0.00,VWS V14.01,2013-02-19 06:46:00,
2013-02-19 00:51:00,31.0,24.3,30.16,NW,322,0.0,0.0,76,0.00,,---,0.00,0.00,VWS V14.01,2013-02-19 06:51:00,
2013-02-19 00:56:00,31.0,24.3,30.16,NW,322,0.0,0.0,76,0.00,,---,0.00,0.00,VWS V14.01,2013-02-19 06:56:00,
2013-02-19 01:01:00,31.2,24.8,30.16,NW,322,0.0,0.0,77,0.00,,---,0.00,0.00,VWS V14.01,2013-02-19 07:01:00,
2013-02-19 01:06:00,31.1,24.8,30.16,NW,322,0.0,0.0,77,0.00,,---,0.00,0.00,VWS V14.01,2013-02-19 07:06:00,
2013-02-19 01:11:00,31.4,25.0,30.16,NW,322,0.0,0.0,77,0.00,,---,0.00,0.00,VWS V14.01,2013-02-19 07:11:00,
2013-02-19 01:16:00,31.6,24.9,30.16,NW,322,0.0,0.0,76,0.00,,---,0.00,0.00,VWS V14.01,2013-02-19 07:16:00,
2013-02-19 01:21:00,31.0,24.3,30.17,NW,322,0.0,0.0,76,0.00,,---,0.00,0.00,VWS V14.01,2013-02-19 07:21:00,
2013-02-19 01:26:00,30.4,24.1,30.17,NW,322,0.0,0.0,77,0.00,,---,0.00,0.00,VWS V14.01,2013-02-19 07:26:00,
2013-02-19 01:31:00,30.3,24.0,30.17,NW,322,0.0,0.0,77,0.00,,---,0.00,0.00,VWS V14.01,2013-02-19 07:31:00,
2013-02-19 01:36:00,30.3,24.0,30.17,NW,322,0.0,0.0,77,0.00,,---,0.00,0.00,VWS V14.01,2013-02-19 07:36:00,
2013-02-19 01:41:00,30.5,24.2,30.17,NW,322,0.0,0.0,77,0.00,,---,0.00,0.00,VWS V14.01,2013-02-19 07:41:00,
2013-02-19 01:46:00,30.2,23.9,30.17,NW,322,0.0,0.0,77,0.00,,---,0.00,0.00,VWS V14.01,2013-02-19 07:46:00,
2013-02-19 01:51:00,29.9,23.6,30.17,NW,322,0.0,0.0,77,0.00,,---,0.00,0.00,VWS V14.01,2013-02-19 07:51:00,
2013-02-19 01:56:00,29.4,23.4,30.18,NW,322,0.0,0.0,78,0.00,,---,0.00,0.00,VWS V14.01,2013-02-19 07:56:00,
2013-02-19 02:01:00,29.9,23.9,30.18,NW,322,0.0,0.0,78,0.00,,---,0.00,0.00,VWS V14.01,2013-02-19 08:01:00,
2013-02-19 02:06:00,30.1,23.8,30.17,NW,322,0.0,0.0,77,0.00,,---,0.00,0.00,VWS V14.01,2013-02-19 08:06:00,
2013-02-19 02:11:00,29.9,23.6,30.17,NW,322,0.0,0.0,77,0.00,,---,0.00,0.00,VWS V14.01,2013-02-19 08:11:00,
2013-02-19 02:16:00,29.4,23.1,30.18,NW,322,0.0,0.0,77,0.00,,---,0.00,0.00,VWS V14.01,2013-02-19 08:16:00,
2013-02-19 02:21:00,28.7,22.7,30.18,NW,322,0.0,0.0,78,0.00,,---,0.00,0.00,VWS V14.01,2013-02-19 08:21:00,
2013-02-19 02:26:00,28.8,22.8,30.18,NW,322,0.0,0.0,78,0.00,,---,0.00,0.00,VWS V14.01,2013-02-19 08:26:00,
2013-02-19 02:31:00,28.5,22.2,30.19,NW,322,0.0,0.0,77,0.00,,---,0.00,0.00,VWS V14.01,2013-02-19 08:31:00,
2013-02-19 02:36:00,28.4,22.7,30.19,NW,322,0.0,0.0,79,0.00,,---,0.00,0.00,VWS V14.01,2013-02-19 08:36:00,
2013-02-19 02:41:00,28.8,23.1,30.19,NW,322,0.0,0.0,79,0.00,,---,0.00,0.00,VWS V14.01,2013-02-19 08:41:00,
2013-02-19 02:46:00,29.1,23.1,30.19,NW,322,0.0,0.0,78,0.00,,---,0.00,0.00,VWS V14.01,2013-02-19 08:46:00,
2013-02-19 02:51:00,28.5,22.5,30.19,NW,322,0.0,0.0,78,0.00,,---,0.00,0.00,VWS V14.01,2013-02-19 08:51:00,
2013-02-19 02:56:00,28.4,22.7,30.19,NW,322,0.0,0.0,79,0.00,,---,0.00,0.00,VWS V14.01,2013-02-19 08:56:00,
2013-02-19 03:01:00,28.6,22.9,30.19,NW,322,0.0,0.0,79,0.00,,---,0.00,0.00,VWS V14.01,2013-02-19 09:01:00,
2013-02-19 03:06:00,28.3,22.3,30.19,NW,322,0.0,0.0,78,0.00,,---,0.00,0.00,VWS V14.01,2013-02-19 09:06:00,
2013-02-19 03:11:00,27.7,22.0,30.19,NW,322,0.0,0.0,79,0.00,,---,0.00,0.00,VWS V14.01,2013-02-19 09:11:00,
2013-02-19 03:16:00,27.5,22.1,30.19,NW,322,0.0,0.0,80,0.00,,---,0.00,0.00,VWS V14.01,2013-02-19 09:16:00,
2013-02-19 03:21:00,28.2,23.1,30.20,NW,322,0.0,0.0,81,0.00,,---,0.00,0.00,VWS V14.01,2013-02-19 09:21:00,
2013-02-19 03:26:00,28.2,22.8,30.19,NW,322,0.0,0.0,80,0.00,,---,0.00,0.00,VWS V14.01,2013-02-19 09:26:00,
2013-02-19 03:31:00,28.2,22.8,30.20,NW,322,0.0,0.0,80,0.00,,---,0.00,0.00,VWS V14.01,2013-02-19 09:31:00,
2013-02-19 03:36:00,27.9,22.5,30.20,NW,322,0.0,0.0,80,0.00,,---,0.00,0.00,VWS V14.01,2013-02-19 09:36:00,
2013-02-19 03:41:00,27.6,22.8,30.20,NW,322,0.0,0.0,82,0.00,,---,0.00,0.00,VWS V14.01,2013-02-19 09:41:00,
2013-02-19 03:46:00,27.6,23.1,30.20,NW,322,0.0,0.0,83,0.00,,---,0.00,0.00,VWS V14.01,2013-02-19 09:46:00,
2013-02-19 03:51:00,27.6,23.1,30.20,NW,322,0.0,0.0,83,0.00,,---,0.00,0.00,VWS V14.01,2013-02-19 09:51:00,
2013-02-19 03:56:00,27.9,23.4,30.20,NW,322,0.0,0.0,83,0.00,,---,0.00,0.00,VWS V14.01,2013-02-19 09:56:00,
2013-02-19 04:01:00,28.0,23.5,30.20,NW,322,0.0,0.0,83,0.00,,---,0.00,0.00,VWS V14.01,2013-02-19 10:01:00,
2013-02-19 04:06:00,28.0,23.5,30.20,NW,322,0.0,0.0,83,0.00,,---,0.00,0.00,VWS V14.01,2013-02-19 10:06:00,
2013-02-19 04:11:00,28.2,23.7,30.20,NW,322,0.0,0.0,83,0.00,,---,0.00,0.00,VWS V14.01,2013-02-19 10:11:00,
2013-02-19 04:16:00,28.2,23.4,30.20,NW,322,0.0,0.0,82,0.00,,---,0.00,0.00,VWS V14.01,2013-02-19 10:16:00,
2013-02-19 04:21:00,28.1,23.3,30.20,NW,322,0.0,0.0,82,0.00,,---,0.00,0.00,VWS V14.01,2013-02-19 10:21:00,
2013-02-19 04:26:00,27.9,23.1,30.21,NW,322,0.0,0.0,82,0.00,,---,0.00,0.00,VWS V14.01,2013-02-19 10:26:00,
2013-02-19 04:31:00,27.8,23.0,30.21,NW,322,0.0,0.0,82,0.00,,---,0.00,0.00,VWS V14.01,2013-02-19 10:31:00,
2013-02-19 04:36:00,27.6,22.8,30.21,NW,322,0.0,0.0,82,0.00,,---,0.00,0.00,VWS V14.01,2013-02-19 10:36:00,
2013-02-19 04:41:00,27.5,22.7,30.21,NW,322,0.0,0.0,82,0.00,,---,0.00,0.00,VWS V14.01,2013-02-19 10:41:00,
2013-02-19 04:46:00,27.5,22.7,30.22,NW,322,0.0,0.0,82,0.00,,---,0.00,0.00,VWS V14.01,2013-02-19 10:46:00,
2013-02-19 04:51:00,27.6,23.1,30.22,NW,322,0.0,0.0,83,0.00,,---,0.00,0.00,VWS V14.01,2013-02-19 10:51:00,
2013-02-19 04:55:00,27.9,23.4,30.22,NW,322,0.0,0.0,83,0.00,,---,0.00,0.00,VWS V14.01,2013-02-19 10:55:00,
2013-02-19 05:00:00,28.3,23.8,30.22,NW,322,0.0,0.0,83,0.00,,---,0.00,0.00,VWS V14.01,2013-02-19 11:00:00,
2013-02-19 05:06:00,27.9,23.1,30.23,NW,322,0.0,0.0,82,0.00,,---,0.00,0.00,VWS V14.01,2013-02-19 11:06:00,
2013-02-19 05:11:00,27.4,22.9,30.23,NW,322,0.0,0.0,83,0.00,,---,0.00,0.00,VWS V14.01,2013-02-19 11:11:00,
2013-02-19 05:16:00,27.5,23.0,30.23,NW,322,0.0,0.0,83,0.00,,---,0.00,0.00,VWS V14.01,2013-02-19 11:16:00,
2013-02-19 05:21:00,26.9,22.4,30.23,NW,322,0.0,0.0,83,0.00,,---,0.00,0.00,VWS V14.01,2013-02-19 11:21:00,
2013-02-19 05:26:00,26.7,22.2,30.24,NW,322,0.0,0.0,83,0.00,,---,0.00,0.00,VWS V14.01,2013-02-19 11:26:00,
2013-02-19 05:31:00,27.3,23.4,30.25,NW,322,0.0,0.0,85,0.00,,---,0.00,0.00,VWS V14.01,2013-02-19 11:31:00,
2013-02-19 05:35:00,28.0,23.8,30.24,NW,322,0.0,0.0,84,0.00,,---,0.00,0.00,VWS V14.01,2013-02-19 11:35:00,
2013-02-19 05:40:00,27.8,23.0,30.25,NW,322,0.0,0.0,82,0.00,,---,0.00,0.00,VWS V14.01,2013-02-19 11:40:00,
2013-02-19 05:45:00,26.9,22.1,30.25,NW,322,0.0,0.0,82,0.00,,---,0.00,0.00,VWS V14.01,2013-02-19 11:45:00,
2013-02-19 05:51:00,26.5,21.8,30.25,NW,322,0.0,0.0,82,0.00,,---,0.00,0.00,VWS V14.01,2013-02-19 11:51:00,
2013-02-19 05:56:00,26.3,22.1,30.26,NW,322,0.0,0.0,84,0.00,,---,0.00,0.00,VWS V14.01,2013-02-19 11:56:00,
2013-02-19 06:01:00,26.6,22.4,30.26,NW,322,0.0,0.0,84,0.00,,---,0.00,0.00,VWS V14.01,2013-02-19 12:01:00,
2013-02-19 06:06:00,26.9,22.7,30.26,NW,322,0.0,0.0,84,0.00,,---,0.00,0.00,VWS V14.01,2013-02-19 12:06:00,
2013-02-19 06:10:00,26.9,22.7,30.26,NW,322,0.0,0.0,84,0.00,,---,0.00,0.00,VWS V14.01,2013-02-19 12:10:00,
2013-02-19 06:15:00,26.6,22.1,30.27,NW,322,0.0,0.0,83,0.00,,---,0.00,0.00,VWS V14.01,2013-02-19 12:15:00,
2013-02-19 06:20:00,26.4,22.0,30.27,NW,322,0.0,0.0,83,0.00,,---,0.00,0.00,VWS V14.01,2013-02-19 12:20:00,
2013-02-19 06:25:00,26.6,22.4,30.27,NW,322,0.0,0.0,84,0.00,,---,0.00,0.00,VWS V14.01,2013-02-19 12:25:00,
2013-02-19 06:30:00,26.6,22.1,30.28,NW,322,0.0,0.0,83,0.00,,---,0.00,0.00,VWS V14.01,2013-02-19 12:30:00,
2013-02-19 06:35:00,26.9,22.7,30.28,NW,322,0.0,0.0,84,0.00,,---,0.00,0.00,VWS V14.01,2013-02-19 12:35:00,
2013-02-19 06:40:00,26.9,22.4,30.28,NW,322,0.0,0.0,83,0.00,,---,0.00,0.00,VWS V14.01,2013-02-19 12:40:00,
2013-02-19 06:45:00,26.3,21.9,30.28,NW,322,0.0,0.0,83,0.00,,---,0.00,0.00,VWS V14.01,2013-02-19 12:45:00,
2013-02-19 06:50:00,26.2,21.8,30.29,NW,322,0.0,0.0,83,0.00,,---,0.00,0.00,VWS V14.01,2013-02-19 12:50:00,
2013-02-19 06:55:00,26.4,22.2,30.29,NW,322,0.0,0.0,84,0.00,,---,0.00,0.00,VWS V14.01,2013-02-19 12:55:00,
2013-02-19 07:00:00,26.6,22.4,30.29,NW,322,0.0,0.0,84,0.00,,---,0.00,0.00,VWS V14.01,2013-02-19 13:00:00,
2013-02-19 07:05:00,26.6,22.1,30.29,NW,322,0.0,0.0,83,0.00,,---,0.00,0.00,VWS V14.01,2013-02-19 13:05:00,
2013-02-19 07:10:00,26.5,22.0,30.30,NW,322,0.0,0.0,83,0.00,,---,0.00,0.00,VWS V14.01,2013-02-19 13:10:00,
2013-02-19 07:15:00,26.2,22.0,30.30,NW,322,0.0,0.0,84,0.00,,---,0.00,0.00,VWS V14.01,2013-02-19 13:15:00,
2013-02-19 07:20:00,26.5,22.3,30.31,NW,322,0.0,0.0,84,0.00,,---,0.00,0.00,VWS V14.01,2013-02-19 13:20:00,
2013-02-19 07:25:00,26.8,22.6,30.31,NW,322,0.0,0.0,84,0.00,,---,0.00,7.00,VWS V14.01,2013-02-19 13:25:00,
2013-02-19 07:30:00,27.1,22.9,30.32,NW,322,0.0,0.0,84,0.00,,---,0.00,11.00,VWS V14.01,2013-02-19 13:30:00,
2013-02-19 07:35:00,27.3,23.1,30.32,NW,322,0.0,0.0,84,0.00,,---,0.00,16.00,VWS V14.01,2013-02-19 13:35:00,
2013-02-19 07:40:00,27.3,22.8,30.32,NW,322,0.0,0.0,83,0.00,,---,0.00,23.00,VWS V14.01,2013-02-19 13:40:00,
2013-02-19 07:45:00,26.7,22.2,30.32,NW,322,0.0,0.0,83,0.00,,---,0.00,28.00,VWS V14.01,2013-02-19 13:45:00,
2013-02-19 07:50:00,26.6,22.7,30.32,NW,322,0.0,0.0,85,0.00,,---,0.00,33.00,VWS V14.01,2013-02-19 13:50:00,
2013-02-19 07:55:00,27.2,23.3,30.32,NW,322,0.0,0.0,85,0.00,,---,0.00,46.00,VWS V14.01,2013-02-19 13:55:00,
2013-02-19 08:00:00,27.0,23.1,30.33,NW,322,0.0,0.0,85,0.00,,---,0.00,111.00,VWS V14.01,2013-02-19 14:00:00,
2013-02-19 08:05:00,28.1,24.2,30.33,NW,322,0.0,0.0,85,0.00,,---,0.00,137.00,VWS V14.01,2013-02-19 14:05:00,
2013-02-19 08:10:00,29.2,25.0,30.33,NW,322,0.0,0.0,84,0.00,,---,0.00,155.00,VWS V14.01,2013-02-19 14:10:00,
2013-02-19 08:15:00,30.0,25.5,30.33,NW,322,0.0,0.0,83,0.00,,---,0.00,178.00,VWS V14.01,2013-02-19 14:15:00,
2013-02-19 08:20:00,31.0,25.9,30.33,NW,322,0.0,0.0,81,0.00,,---,0.00,193.00,VWS V14.01,2013-02-19 14:20:00,
2013-02-19 08:25:00,32.1,26.6,30.34,NW,322,0.0,0.0,80,0.00,,---,0.00,199.00,VWS V14.01,2013-02-19 14:25:00,
2013-02-19 08:30:00,33.0,27.5,30.33,NW,322,0.0,0.0,80,0.00,,---,0.00,279.00,VWS V14.01,2013-02-19 14:30:00,
2013-02-19 08:35:00,34.6,28.5,30.34,NW,322,0.0,0.0,78,0.00,,---,0.00,186.00,VWS V14.01,2013-02-19 14:35:00,
2013-02-19 08:40:00,35.0,27.9,30.34,NW,322,0.0,0.0,75,0.00,,---,0.00,167.00,VWS V14.01,2013-02-19 14:40:00,
2013-02-19 08:45:00,35.3,27.9,30.34,NW,322,0.0,0.0,74,0.00,,---,0.00,204.00,VWS V14.01,2013-02-19 14:45:00,
2013-02-19 08:50:00,36.1,29.0,30.34,NW,322,0.0,0.0,75,0.00,,---,0.00,236.00,VWS V14.01,2013-02-19 14:50:00,
2013-02-19 08:55:00,36.4,28.6,30.34,NW,322,0.0,0.0,73,0.00,,---,0.00,295.00,VWS V14.01,2013-02-19 14:55:00,
2013-02-19 09:00:00,37.8,29.6,30.34,NW,322,0.0,0.0,72,0.00,,---,0.00,350.00,VWS V14.01,2013-02-19 15:00:00,
2013-02-19 09:05:00,38.4,29.8,30.34,NW,322,0.0,0.0,71,0.00,,---,0.00,323.00,VWS V14.01,2013-02-19 15:05:00,
2013-02-19 09:10:00,39.3,30.7,30.34,NW,322,0.0,0.0,71,0.00,,---,0.00,258.00,VWS V14.01,2013-02-19 15:10:00,
2013-02-19 09:15:00,40.4,30.0,30.34,NE,50,1.0,5.0,66,0.00,,---,0.00,264.00,VWS V14.01,2013-02-19 15:15:00,
2013-02-19 09:20:00,41.1,30.6,30.34,ENE,74,0.0,5.0,66,0.00,,---,0.00,457.00,VWS V14.01,2013-02-19 15:20:00,
2013-02-19 09:25:00,42.5,31.6,30.34,ENE,74,1.0,5.0,65,0.00,,---,0.00,378.00,VWS V14.01,2013-02-19 15:25:00,
2013-02-19 09:30:00,44.0,29.8,30.34,East,100,1.0,3.0,57,0.00,,---,0.00,489.00,VWS V14.01,2013-02-19 15:30:00,
2013-02-19 09:35:00,45.0,28.5,30.34,ESE,109,3.0,5.0,52,0.00,,---,0.00,450.00,VWS V14.01,2013-02-19 15:35:00,
2013-02-19 09:40:00,45.5,28.4,30.34,ESE,123,4.0,9.0,51,0.00,,---,0.00,489.00,VWS V14.01,2013-02-19 15:40:00,
2013-02-19 09:45:00,45.4,28.4,30.34,ESE,108,3.0,9.0,51,0.00,,---,0.00,269.00,VWS V14.01,2013-02-19 15:45:00,
2013-02-19 09:50:00,45.2,27.7,30.35,ESE,111,1.0,9.0,50,0.00,,---,0.00,325.00,VWS V14.01,2013-02-19 15:50:00,
2013-02-19 09:55:00,45.2,27.7,30.34,ESE,115,4.0,9.0,50,0.00,,---,0.00,271.00,VWS V14.01,2013-02-19 15:55:00,
2013-02-19 10:00:00,45.0,27.0,30.35,SE,124,1.0,4.0,49,0.00,,---,0.00,408.00,VWS V14.01,2013-02-19 16:00:00,
2013-02-19 10:05:00,45.4,27.9,30.35,SE,127,2.0,9.0,50,0.00,,---,0.00,392.00,VWS V14.01,2013-02-19 16:05:00,
2013-02-19 10:10:00,45.5,27.5,30.35,SSE,148,6.0,9.0,49,0.00,,---,0.00,380.00,VWS V14.01,2013-02-19 16:10:00,
2013-02-19 10:15:00,45.3,28.2,30.35,SE,130,2.0,9.0,51,0.00,,---,0.00,429.00,VWS V14.01,2013-02-19 16:15:00,
2013-02-19 10:20:00,45.6,27.6,30.35,East,96,3.0,13.0,49,0.00,,---,0.00,468.00,VWS V14.01,2013-02-19 16:20:00,
2013-02-19 10:25:00,45.7,28.1,30.35,SE,134,5.0,13.0,50,0.00,,---,0.00,526.00,VWS V14.01,2013-02-19 16:25:00,
2013-02-19 10:30:00,46.0,27.9,30.35,ESE,113,2.0,3.0,49,0.00,,---,0.00,468.00,VWS V14.01,2013-02-19 16:30:00,
2013-02-19 10:35:00,46.7,27.6,30.35,SE,137,4.0,13.0,47,0.00,,---,0.00,619.00,VWS V14.01,2013-02-19 16:35:00,
2013-02-19 10:40:00,46.7,27.0,30.35,ESE,109,4.0,13.0,46,0.00,,---,0.00,406.00,VWS V14.01,2013-02-19 16:40:00,
2013-02-19 10:45:00,47.4,28.2,30.35,East,97,2.0,13.0,47,0.00,,---,0.00,548.00,VWS V14.01,2013-02-19 16:45:00,
2013-02-19 10:50:00,47.0,27.3,30.35,SE,135,8.0,13.0,46,0.00,,---,0.00,436.00,VWS V14.01,2013-02-19 16:50:00,
2013-02-19 10:55:00,46.9,27.7,30.34,SE,127,2.0,13.0,47,0.00,,---,0.00,476.00,VWS V14.01,2013-02-19 16:55:00,
2013-02-19 11:00:00,47.5,28.8,30.34,SE,128,2.0,5.0,48,0.00,,---,0.00,589.00,VWS V14.01,2013-02-19 17:00:00,
2013-02-19 11:05:00,48.3,29.0,30.34,ESE,115,3.0,10.0,47,0.00,,---,0.00,728.00,VWS V14.01,2013-02-19 17:05:00,
2013-02-19 11:10:00,48.3,29.0,30.34,East,92,5.0,11.0,47,0.00,,---,0.00,687.00,VWS V14.01,2013-02-19 17:10:00,
2013-02-19 11:15:00,48.2,28.9,30.35,East,96,6.0,15.0,47,0.00,,---,0.00,617.00,VWS V14.01,2013-02-19 17:15:00,
2013-02-19 11:20:00,48.4,28.6,30.35,East,98,11.0,15.0,46,0.00,,---,0.00,700.00,VWS V14.01,2013-02-19 17:20:00,
2013-02-19 11:25:00,48.9,29.6,30.34,East,97,0.0,15.0,47,0.00,,---,0.00,714.00,VWS V14.01,2013-02-19 17:25:00,
2013-02-19 11:30:00,49.2,29.3,30.34,ESE,115,2.0,2.0,46,0.00,,---,0.00,431.00,VWS V14.01,2013-02-19 17:30:00,
2013-02-19 11:35:00,49.2,29.9,30.34,East,82,10.0,14.0,47,0.00,,---,0.00,770.00,VWS V14.01,2013-02-19 17:35:00,
2013-02-19 11:40:00,50.1,30.7,30.34,East,94,5.0,14.0,47,0.00,,---,0.00,745.00,VWS V14.01,2013-02-19 17:40:00,
2013-02-19 11:45:00,50.0,29.5,30.33,SE,130,1.0,14.0,45,0.00,,---,0.00,773.00,VWS V14.01,2013-02-19 17:45:00,
2013-02-19 11:50:00,50.1,30.1,30.33,ESE,113,3.0,14.0,46,0.00,,---,0.00,482.00,VWS V14.01,2013-02-19 17:50:00,
2013-02-19 11:55:00,50.6,30.1,30.33,East,90,7.0,14.0,45,0.00,,---,0.00,512.00,VWS V14.01,2013-02-19 17:55:00,
2013-02-19 12:00:00,50.2,29.7,30.33,East,99,2.0,7.0,45,0.00,,---,0.00,348.00,VWS V14.01,2013-02-19 18:00:00,
2013-02-19 12:05:00,50.4,29.9,30.32,ESE,102,1.0,8.0,45,0.00,,---,0.00,740.00,VWS V14.01,2013-02-19 18:05:00,
2013-02-19 12:10:00,51.6,29.3,30.32,East,91,2.0,11.0,42,0.00,,---,0.00,629.00,VWS V14.01,2013-02-19 18:10:00,
2013-02-19 12:15:00,52.5,29.5,30.32,East,92,1.0,11.0,41,0.00,,---,0.00,722.00,VWS V14.01,2013-02-19 18:15:00,
2013-02-19 12:20:00,53.0,30.0,30.31,ESE,111,2.0,11.0,41,0.00,,---,0.00,821.00,VWS V14.01,2013-02-19 18:20:00,
2013-02-19 12:25:00,53.0,28.7,30.31,East,94,6.0,11.0,39,0.00,,---,0.00,824.00,VWS V14.01,2013-02-19 18:25:00,
2013-02-19 12:30:00,53.9,28.2,30.31,East,98,2.0,7.0,37,0.00,,---,0.00,819.00,VWS V14.01,2013-02-19 18:30:00,
2013-02-19 12:35:00,53.2,27.0,30.31,East,81,13.0,15.0,36,0.00,,---,0.00,842.00,VWS V14.01,2013-02-19 18:35:00,
2013-02-19 12:40:00,53.7,27.4,30.30,East,87,6.0,15.0,36,0.00,,---,0.00,782.00,VWS V14.01,2013-02-19 18:40:00,
2013-02-19 12:45:00,54.0,27.0,30.31,SE,133,1.0,15.0,35,0.00,,---,0.00,796.00,VWS V14.01,2013-02-19 18:45:00,
2013-02-19 12:50:00,54.2,27.9,30.30,SE,132,0.0,15.0,36,0.00,,---,0.00,786.00,VWS V14.01,2013-02-19 18:50:00,
2013-02-19 12:55:00,53.9,27.6,30.30,East,100,5.0,15.0,36,0.00,,---,0.00,779.00,VWS V14.01,2013-02-19 18:55:00,
2013-02-19 13:00:00,54.5,27.4,30.29,SE,124,3.0,9.0,35,0.00,,---,0.00,784.00,VWS V14.01,2013-02-19 19:00:00,
2013-02-19 13:05:00,54.5,28.1,30.28,SE,134,2.0,9.0,36,0.00,,---,0.00,759.00,VWS V14.01,2013-02-19 19:05:00,
2013-02-19 13:10:00,54.8,27.7,30.28,East,94,2.0,14.0,35,0.00,,---,0.00,779.00,VWS V14.01,2013-02-19 19:10:00,
2013-02-19 13:15:00,54.9,27.1,30.27,ENE,78,10.0,14.0,34,0.00,,---,0.00,780.00,VWS V14.01,2013-02-19 19:15:00,
2013-02-19 13:20:00,54.5,25.3,30.27,East,80,9.0,14.0,32,0.00,,---,0.00,751.00,VWS V14.01,2013-02-19 19:20:00,
2013-02-19 13:25:00,54.8,26.3,30.27,East,86,7.0,15.0,33,0.00,,---,0.00,768.00,VWS V14.01,2013-02-19 19:25:00,
2013-02-19 13:30:00,54.9,24.9,30.26,East,88,9.0,10.0,31,0.00,,---,0.00,779.00,VWS V14.01,2013-02-19 19:30:00,
2013-02-19 13:35:00,55.0,25.7,30.26,ESE,121,13.0,13.0,32,0.00,,---,0.00,747.00,VWS V14.01,2013-02-19 19:35:00,
2013-02-19 13:40:00,55.7,25.5,30.25,ESE,113,3.0,13.0,31,0.00,,---,0.00,740.00,VWS V14.01,2013-02-19 19:40:00,
2013-02-19 13:45:00,55.4,25.3,30.24,ESE,109,2.0,13.0,31,0.00,,---,0.00,747.00,VWS V14.01,2013-02-19 19:45:00,
2013-02-19 13:50:00,55.8,24.9,30.24,ESE,119,3.0,13.0,30,0.00,,---,0.00,742.00,VWS V14.01,2013-02-19 19:50:00,
2013-02-19 13:55:00,56.3,26.1,30.23,ESE,103,8.0,16.0,31,0.00,,---,0.00,737.00,VWS V14.01,2013-02-19 19:55:00,
2013-02-19 14:00:00,55.8,24.9,30.23,East,98,2.0,3.0,30,0.00,,---,0.00,729.00,VWS V14.01,2013-02-19 20:00:00,
2013-02-19 14:05:00,56.2,25.2,30.23,ESE,111,4.0,17.0,30,0.00,,---,0.00,721.00,VWS V14.01,2013-02-19 20:05:00,
2013-02-19 14:10:00,56.0,23.4,30.22,ENE,78,12.0,17.0,28,0.00,,---,0.00,714.00,VWS V14.01,2013-02-19 20:10:00,
2013-02-19 14:15:00,55.9,24.1,30.22,ESE,107,1.0,17.0,29,0.00,,---,0.00,708.00,VWS V14.01,2013-02-19 20:15:00,
2013-02-19 14:20:00,56.3,23.6,30.22,East,101,14.0,17.0,28,0.00,,---,0.00,703.00,VWS V14.01,2013-02-19 20:20:00,
2013-02-19 14:25:00,56.1,23.5,30.22,East,98,8.0,21.0,28,0.00,,---,0.00,694.00,VWS V14.01,2013-02-19 20:25:00,
2013-02-19 14:30:00,56.6,23.0,30.21,East,94,7.0,7.0,27,0.00,,---,0.00,686.00,VWS V14.01,2013-02-19 20:30:00,
2013-02-19 14:35:00,56.9,24.1,30.20,ESE,103,14.0,19.0,28,0.00,,---,0.00,679.00,VWS V14.01,2013-02-19 20:35:00,
2013-02-19 14:40:00,56.5,22.9,30.20,East,98,8.0,19.0,27,0.00,,---,0.00,673.00,VWS V14.01,2013-02-19 20:40:00,
2013-02-19 14:45:00,57.3,24.5,30.19,East,95,6.0,19.0,28,0.00,,---,0.00,578.00,VWS V14.01,2013-02-19 20:45:00,
2013-02-19 14:50:00,57.5,23.8,30.19,ESE,103,3.0,19.0,27,0.00,,---,0.00,673.00,VWS V14.01,2013-02-19 20:50:00,
2013-02-19 14:55:00,57.2,23.5,30.20,ESE,107,3.0,19.0,27,0.00,,---,0.00,608.00,VWS V14.01,2013-02-19 20:55:00,
2013-02-19 15:00:00,57.3,22.7,30.19,ESE,104,5.0,5.0,26,0.00,,---,0.00,587.00,VWS V14.01,2013-02-19 21:00:00,
2013-02-19 15:05:00,57.1,22.6,30.19,East,88,18.0,18.0,26,0.00,,---,0.00,520.00,VWS V14.01,2013-02-19 21:05:00,
2013-02-19 15:10:00,56.7,22.2,30.19,East,97,9.0,18.0,26,0.00,,---,0.00,596.00,VWS V14.01,2013-02-19 21:10:00,
2013-02-19 15:15:00,57.0,23.4,30.19,ESE,122,7.0,18.0,27,0.00,,---,0.00,585.00,VWS V14.01,2013-02-19 21:15:00,
2013-02-19 15:20:00,57.1,23.5,30.19,East,94,5.0,18.0,27,0.00,,---,0.00,673.00,VWS V14.01,2013-02-19 21:20:00,
2013-02-19 15:25:00,56.8,23.2,30.18,ESE,117,2.0,19.0,27,0.00,,---,0.00,548.00,VWS V14.01,2013-02-19 21:25:00,
2013-02-19 15:30:00,57.0,23.4,30.17,East,100,2.0,5.0,27,0.00,,---,0.00,401.00,VWS V14.01,2013-02-19 21:30:00,
2013-02-19 15:35:00,56.4,22.9,30.16,ESE,115,10.0,15.0,27,0.00,,---,0.00,538.00,VWS V14.01,2013-02-19 21:35:00,
2013-02-19 15:40:00,56.7,23.1,30.16,East,86,3.0,15.0,27,0.00,,---,0.00,450.00,VWS V14.01,2013-02-19 21:40:00,
2013-02-19 15:45:00,56.7,23.1,30.17,ESE,110,3.0,16.0,27,0.00,,---,0.00,422.00,VWS V14.01,2013-02-19 21:45:00,
2013-02-19 15:50:00,56.8,24.1,30.17,East,98,2.0,16.0,28,0.00,,---,0.00,390.00,VWS V14.01,2013-02-19 21:50:00,
2013-02-19 15:55:00,56.7,22.2,30.17,ESE,105,9.0,21.0,26,0.00,,---,0.00,294.00,VWS V14.01,2013-02-19 21:55:00,
2013-02-19 16:00:00,56.5,22.9,30.16,East,98,14.0,14.0,27,0.00,,---,0.00,443.00,VWS V14.01,2013-02-19 22:00:00,
2013-02-19 16:05:00,56.5,23.8,30.17,ESE,120,2.0,14.0,28,0.00,,---,0.00,422.00,VWS V14.01,2013-02-19 22:05:00,
2013-02-19 16:10:00,57.2,23.5,30.17,East,94,2.0,16.0,27,0.00,,---,0.00,408.00,VWS V14.01,2013-02-19 22:10:00,
2013-02-19 16:15:00,57.0,23.4,30.16,SE,130,2.0,16.0,27,0.00,,---,0.00,246.00,VWS V14.01,2013-02-19 22:15:00,
2013-02-19 16:20:00,56.4,22.9,30.16,ESE,115,10.0,18.0,27,0.00,,---,0.00,236.00,VWS V14.01,2013-02-19 22:20:00,
2013-02-19 16:25:00,56.3,23.6,30.15,ESE,107,8.0,18.0,28,0.00,,---,0.00,246.00,VWS V14.01,2013-02-19 22:25:00,
2013-02-19 16:30:00,56.4,24.6,30.16,East,93,11.0,11.0,29,0.00,,---,0.00,236.00,VWS V14.01,2013-02-19 22:30:00,
2013-02-19 16:35:00,56.4,24.6,30.17,ESE,114,4.0,13.0,29,0.00,,---,0.00,199.00,VWS V14.01,2013-02-19 22:35:00,
2013-02-19 16:40:00,56.1,24.3,30.17,East,101,6.0,13.0,29,0.00,,---,0.00,195.00,VWS V14.01,2013-02-19 22:40:00,
2013-02-19 16:45:00,56.0,24.2,30.16,ESE,119,7.0,16.0,29,0.00,,---,0.00,185.00,VWS V14.01,2013-02-19 22:45:00,
2013-02-19 16:50:00,55.9,24.1,30.16,East,94,9.0,16.0,29,0.00,,---,0.00,149.00,VWS V14.01,2013-02-19 22:50:00,
2013-02-19 16:55:00,55.8,24.0,30.16,ESE,103,2.0,16.0,29,0.00,,---,0.00,134.00,VWS V14.01,2013-02-19 22:55:00,
2013-02-19 17:00:00,55.6,23.9,30.16,ESE,104,5.0,5.0,29,0.00,,---,0.00,130.00,VWS V14.01,2013-02-19 23:00:00,
2013-02-19 17:05:00,55.5,23.8,30.16,East,86,13.0,14.0,29,0.00,,---,0.00,127.00,VWS V14.01,2013-02-19 23:05:00,
2013-02-19 17:10:00,55.5,23.8,30.15,East,91,8.0,14.0,29,0.00,,---,0.00,100.00,VWS V14.01,2013-02-19 23:10:00,
2013-02-19 17:15:00,55.3,24.4,30.15,East,85,14.0,17.0,30,0.00,,---,0.00,86.00,VWS V14.01,2013-02-19 23:15:00,
2013-02-19 17:20:00,55.1,24.2,30.15,East,98,10.0,17.0,30,0.00,,---,0.00,77.00,VWS V14.01,2013-02-19 23:20:00,
2013-02-19 17:25:00,55.0,24.9,30.14,East,90,7.0,17.0,31,0.00,,---,0.00,70.00,VWS V14.01,2013-02-19 23:25:00,
2013-02-19 17:30:00,54.8,24.8,30.14,East,88,8.0,8.0,31,0.00,,---,0.00,67.00,VWS V14.01,2013-02-19 23:30:00,
2013-02-19 17:35:00,54.6,24.6,30.13,East,85,8.0,16.0,31,0.00,,---,0.00,62.00,VWS V14.01,2013-02-19 23:35:00,
2013-02-19 17:40:00,54.4,25.2,30.13,East,90,9.0,17.0,32,0.00,,---,0.00,54.00,VWS V14.01,2013-02-19 23:40:00,
2013-02-19 17:45:00,54.2,25.0,30.13,East,95,3.0,17.0,32,0.00,,---,0.00,53.00,VWS V14.01,2013-02-19 23:45:00,
2013-02-19 17:50:00,54.0,24.8,30.13,ENE,76,12.0,17.0,32,0.00,,---,0.00,44.00,VWS V14.01,2013-02-19 23:50:00,
2013-02-19 17:55:00,53.9,25.5,30.14,East,86,7.0,17.0,33,0.00,,---,0.00,37.00,VWS V14.01,2013-02-19 23:55:00,
2013-02-19 18:00:00,53.6,25.2,30.14,East,99,6.0,17.0,33,0.00,,---,0.00,25.00,VWS V14.01,2013-02-20 00:00:00,
2013-02-19 18:05:00,53.4,25.0,30.14,East,91,7.0,14.0,33,0.00,,---,0.00,16.00,VWS V14.01,2013-02-20 00:05:00,
2013-02-19 18:10:00,53.2,25.6,30.14,East,80,5.0,14.0,34,0.00,,---,0.00,11.00,VWS V14.01,2013-02-20 00:10:00,
2013-02-19 18:15:00,52.9,25.3,30.15,East,82,5.0,14.0,34,0.00,,---,0.00,5.00,VWS V14.01,2013-02-20 00:15:00,
2013-02-19 18:20:00,52.6,25.8,30.15,East,86,9.0,14.0,35,0.00,,---,0.00,0.00,VWS V14.01,2013-02-20 00:20:00,
2013-02-19 18:25:00,52.3,25.5,30.15,East,82,6.0,14.0,35,0.00,,---,0.00,0.00,VWS V14.01,2013-02-20 00:25:00,
2013-02-19 18:30:00,52.1,26.0,30.15,East,82,7.0,14.0,36,0.00,,---,0.00,0.00,VWS V14.01,2013-02-20 00:30:00,
2013-02-19 18:35:00,51.9,25.8,30.15,East,85,6.0,10.0,36,0.00,,---,0.00,0.00,VWS V14.01,2013-02-20 00:35:00,
2013-02-19 18:40:00,51.7,25.6,30.15,East,92,8.0,13.0,36,0.00,,---,0.00,0.00,VWS V14.01,2013-02-20 00:40:00,
2013-02-19 18:45:00,51.5,25.5,30.15,East,90,6.0,13.0,36,0.00,,---,0.00,0.00,VWS V14.01,2013-02-20 00:45:00,
2013-02-19 18:50:00,51.4,25.4,30.15,East,85,5.0,13.0,36,0.00,,---,0.00,0.00,VWS V14.01,2013-02-20 00:50:00,
2013-02-19 18:55:00,51.2,25.8,30.15,East,88,5.0,13.0,37,0.00,,---,0.00,0.00,VWS V14.01,2013-02-20 00:55:00,
2013-02-19 19:00:00,51.1,25.8,30.15,East,83,7.0,13.0,37,0.00,,---,0.00,0.00,VWS V14.01,2013-02-20 01:00:00,
2013-02-19 19:05:00,50.9,26.2,30.16,East,89,6.0,9.0,38,0.00,,---,0.00,0.00,VWS V14.01,2013-02-20 01:05:00,
2013-02-19 19:10:00,50.8,26.1,30.15,East,90,7.0,9.0,38,0.00,,---,0.00,0.00,VWS V14.01,2013-02-20 01:10:00,
2013-02-19 19:15:00,50.6,26.0,30.15,East,83,6.0,10.0,38,0.00,,---,0.00,0.00,VWS V14.01,2013-02-20 01:15:00,
2013-02-19 19:20:00,50.5,26.5,30.15,East,83,3.0,10.0,39,0.00,,---,0.00,0.00,VWS V14.01,2013-02-20 01:20:00,
2013-02-19 19:25:00,50.4,26.4,30.15,East,84,6.0,10.0,39,0.00,,---,0.00,0.00,VWS V14.01,2013-02-20 01:25:00,
2013-02-19 19:30:00,50.3,26.9,30.15,East,91,7.0,10.0,40,0.00,,---,0.00,0.00,VWS V14.01,2013-02-20 01:30:00,
2013-02-19 19:35:00,50.2,26.2,30.15,East,89,5.0,10.0,39,0.00,,---,0.00,0.00,VWS V14.01,2013-02-20 01:35:00,
2013-02-19 19:40:00,50.1,26.1,30.15,East,84,6.0,10.0,39,0.00,,---,0.00,0.00,VWS V14.01,2013-02-20 01:40:00,
2013-02-19 19:45:00,50.0,26.0,30.15,East,84,5.0,10.0,39,0.00,,---,0.00,0.00,VWS V14.01,2013-02-20 01:45:00,
2013-02-19 19:50:00,50.0,26.0,30.15,East,94,5.0,10.0,39,0.00,,---,0.00,0.00,VWS V14.01,2013-02-20 01:50:00,
2013-02-19 19:55:00,50.0,25.4,30.16,East,96,8.0,13.0,38,0.00,,---,0.00,0.00,VWS V14.01,2013-02-20 01:55:00,
2013-02-19 20:00:00,50.1,25.5,30.17,East,92,5.0,13.0,38,0.00,,---,0.00,0.00,VWS V14.01,2013-02-20 02:00:00,
2013-02-19 20:05:00,50.0,25.4,30.17,East,101,5.0,9.0,38,0.00,,---,0.00,0.00,VWS V14.01,2013-02-20 02:05:00,
2013-02-19 20:10:00,50.0,25.4,30.16,East,93,7.0,10.0,38,0.00,,---,0.00,0.00,VWS V14.01,2013-02-20 02:10:00,
2013-02-19 20:15:00,50.0,25.4,30.16,East,94,5.0,10.0,38,0.00,,---,0.00,0.00,VWS V14.01,2013-02-20 02:15:00,
2013-02-19 20:20:00,50.0,24.8,30.16,ESE,103,4.0,11.0,37,0.00,,---,0.00,0.00,VWS V14.01,2013-02-20 02:20:00,
2013-02-19 20:25:00,50.1,24.9,30.15,East,99,8.0,14.0,37,0.00,,---,0.00,0.00,VWS V14.01,2013-02-20 02:25:00,
2013-02-19 20:30:00,50.1,24.9,30.15,ESE,105,5.0,14.0,37,0.00,,---,0.00,0.00,VWS V14.01,2013-02-20 02:30:00,
2013-02-19 20:35:00,50.2,24.3,30.15,East,95,7.0,11.0,36,0.00,,---,0.00,0.00,VWS V14.01,2013-02-20 02:35:00,
2013-02-19 20:40:00,50.2,24.3,30.15,East,90,10.0,16.0,36,0.00,,---,0.00,0.00,VWS V14.01,2013-02-20 02:40:00,
2013-02-19 20:45:00,50.3,24.4,30.14,East,93,11.0,16.0,36,0.00,,---,0.00,0.00,VWS V14.01,2013-02-20 02:45:00,
2013-02-19 20:50:00,50.3,24.4,30.15,East,99,9.0,16.0,36,0.00,,---,0.00,0.00,VWS V14.01,2013-02-20 02:50:00,
2013-02-19 20:55:00,50.3,24.4,30.15,East,100,6.0,16.0,36,0.00,,---,0.00,0.00,VWS V14.01,2013-02-20 02:55:00,
2013-02-19 21:00:00,50.3,24.4,30.15,East,96,7.0,16.0,36,0.00,,---,0.00,0.00,VWS V14.01,2013-02-20 03:00:00,
2013-02-19 21:05:00,50.3,24.4,30.16,ESE,107,5.0,13.0,36,0.00,,---,0.00,0.00,VWS V14.01,2013-02-20 03:05:00,
2013-02-19 21:10:00,50.2,24.3,30.16,ESE,102,5.0,15.0,36,0.00,,---,0.00,0.00,VWS V14.01,2013-02-20 03:10:00,
2013-02-19 21:15:00,50.3,24.4,30.16,East,101,8.0,15.0,36,0.00,,---,0.00,0.00,VWS V14.01,2013-02-20 03:15:00,
2013-02-19 21:20:00,50.4,24.5,30.16,East,96,9.0,17.0,36,0.00,,---,0.00,0.00,VWS V14.01,2013-02-20 03:20:00,
2013-02-19 21:25:00,50.5,24.6,30.16,East,91,10.0,17.0,36,0.00,,---,0.00,0.00,VWS V14.01,2013-02-20 03:25:00,
2013-02-19 21:30:00,50.5,23.9,30.16,East,88,9.0,17.0,35,0.00,,---,0.00,0.00,VWS V14.01,2013-02-20 03:30:00,
2013-02-19 21:35:00,50.5,24.6,30.15,East,92,8.0,15.0,36,0.00,,---,0.00,0.00,VWS V14.01,2013-02-20 03:35:00,
2013-02-19 21:40:00,50.4,24.5,30.15,ESE,104,4.0,15.0,36,0.00,,---,0.00,0.00,VWS V14.01,2013-02-20 03:40:00,
2013-02-19 21:45:00,50.4,24.5,30.15,East,101,7.0,17.0,36,0.00,,---,0.00,0.00,VWS V14.01,2013-02-20 03:45:00,
2013-02-19 21:50:00,50.3,25.0,30.15,ESE,110,10.0,17.0,37,0.00,,---,0.00,0.00,VWS V14.01,2013-02-20 03:50:00,
2013-02-19 21:55:00,50.3,25.0,30.15,ESE,104,4.0,17.0,37,0.00,,---,0.00,0.00,VWS V14.01,2013-02-20 03:55:00,
2013-02-19 22:00:00,50.2,25.0,30.16,ESE,107,8.0,17.0,37,0.00,,---,0.00,0.00,VWS V14.01,2013-02-20 04:00:00,
2013-02-19 22:05:00,50.1,24.9,30.16,East,93,7.0,11.0,37,0.00,,---,0.00,0.00,VWS V14.01,2013-02-20 04:05:00,
2013-02-19 22:10:00,50.1,24.9,30.15,East,87,8.0,14.0,37,0.00,,---,0.00,0.00,VWS V14.01,2013-02-20 04:10:00,
2013-02-19 22:15:00,50.0,24.8,30.15,East,99,13.0,15.0,37,0.00,,---,0.00,0.00,VWS V14.01,2013-02-20 04:15:00,
2013-02-19 22:20:00,49.9,25.3,30.15,East,95,10.0,15.0,38,0.00,,---,0.00,0.00,VWS V14.01,2013-02-20 04:20:00,
2013-02-19 22:25:00,49.9,25.3,30.15,East,94,8.0,16.0,38,0.00,,---,0.00,0.00,VWS V14.01,2013-02-20 04:25:00,
2013-02-19 22:30:00,49.7,25.1,30.15,East,96,10.0,16.0,38,0.00,,---,0.00,0.00,VWS V14.01,2013-02-20 04:30:00,
2013-02-19 22:35:00,49.7,25.8,30.15,East,94,7.0,11.0,39,0.00,,---,0.00,0.00,VWS V14.01,2013-02-20 04:35:00,
2013-02-19 22:40:00,49.6,25.7,30.15,East,92,8.0,13.0,39,0.00,,---,0.00,0.00,VWS V14.01,2013-02-20 04:40:00,
2013-02-19 22:45:00,49.6,25.7,30.15,East,99,6.0,13.0,39,0.00,,---,0.00,0.00,VWS V14.01,2013-02-20 04:45:00,
2013-02-19 22:50:00,49.6,25.7,30.15,East,93,9.0,13.0,39,0.00,,---,0.00,0.00,VWS V14.01,2013-02-20 04:50:00,
2013-02-19 22:55:00,49.6,25.7,30.14,East,98,7.0,13.0,39,0.00,,---,0.00,0.00,VWS V14.01,2013-02-20 04:55:00,
2013-02-19 23:00:00,49.6,26.3,30.14,East,93,9.0,14.0,40,0.00,,---,0.00,0.00,VWS V14.01,2013-02-20 05:00:00,
2013-02-19 23:05:00,49.5,26.2,30.14,East,98,5.0,10.0,40,0.00,,---,0.00,0.00,VWS V14.01,2013-02-20 05:05:00,
2013-02-19 23:10:00,49.4,26.7,30.14,ESE,108,7.0,13.0,41,0.00,,---,0.00,0.00,VWS V14.01,2013-02-20 05:10:00,
2013-02-19 23:15:00,49.4,26.7,30.14,ESE,105,4.0,15.0,41,0.00,,---,0.00,0.00,VWS V14.01,2013-02-20 05:15:00,
2013-02-19 23:20:00,49.2,26.5,30.14,East,101,7.0,15.0,41,0.00,,---,0.00,0.00,VWS V14.01,2013-02-20 05:20:00,
2013-02-19 23:25:00,49.1,27.0,30.14,ESE,114,5.0,15.0,42,0.00,,---,0.00,0.00,VWS V14.01,2013-02-20 05:25:00,
2013-02-19 23:30:00,48.9,27.4,30.14,ESE,104,3.0,15.0,43,0.00,,---,0.00,0.00,VWS V14.01,2013-02-20 05:30:00,
2013-02-19 23:35:00,48.8,27.3,30.14,East,96,6.0,10.0,43,0.00,,---,0.00,0.00,VWS V14.01,2013-02-20 05:35:00,
2013-02-19 23:40:00,48.9,27.4,30.14,ESE,111,5.0,14.0,43,0.00,,---,0.00,0.00,VWS V14.01,2013-02-20 05:40:00,
2013-02-19 23:45:00,49.4,27.9,30.14,SE,144,7.0,14.0,43,0.00,,---,0.00,0.00,VWS V14.01,2013-02-20 05:45:00,
2013-02-19 23:50:00,49.8,28.2,30.14,SSE,149,10.0,17.0,43,0.00,,---,0.00,0.00,VWS V14.01,2013-02-20 05:50:00,
2013-02-19 23:55:00,49.9,28.3,30.14,SE,134,7.0,20.0,43,0.00,,---,0.00,0.00,VWS V14.01,2013-02-20 05:55:00,